Regional Weather Roundup
Issued by NWS

Home | Current Version | Previous Version | Graphics & Text | Print | Product List | Glossary On
Versions: 1 2 3 4 5 6 7 8 9 10 11 12 13 14 15 16 17 18 19 20 21 22 23 24 25 26 27 28 29 30 31 32 33 34 35 36 37 38 39 40 41 42 43 44 45 46 47 48 49 50
000
ASUS45 KCYS 020010
RWRWY

WYOMING REGIONAL WEATHER ROUNDUP
NATIONAL WEATHER SERVICE CHEYENNE WY
600 PM MDT FRI AUG 01 2014

NOTE:  "FAIR" INDICATES FEW OR NO CLOUDS BELOW 12,000 FEET
WITH NO SIGNIFICANT WEATHER AND/OR OBSTRUCTIONS TO VISIBILITY.

WYZ001-020100-
YELLOWSTONE NATIONAL PARK

CITY           SKY/WX    TMP DP  RH WIND       PRES   REMARKS
LK YELLOWSTONE   N/A     59  44  57 VRB3      30.49S
6HR MIN TEMP:  59; 6HR MAX TEMP:  73;

W YELLOWSTONE  NOT AVBL

$$
WYZ002>013-054>058-071-098>099-020100-
NORTHERN WYOMING

CITY           SKY/WX    TMP DP  RH WIND       PRES   REMARKS
JACKSON        NOT AVBL
CODY           CLOUDY    70  46  43 W14G29    30.29R
GREYBULL       PTSUNNY   87  37  17 N7        30.12R
6HR MIN TEMP:  83; 6HR MAX TEMP:  94; 6HR PCP: TRACE;

WORLAND        PTSUNNY   85  41  21 NE8       30.12S
6HR MIN TEMP:  82; 6HR MAX TEMP:  92;

SHERIDAN       PTSUNNY   88  41  19 S5        30.12F
6HR MIN TEMP:  82; 6HR MAX TEMP:  92; 6HR PCP: TRACE;

BUFFALO        PTSUNNY   86  37  17 VRB5      30.21F
6HR MIN TEMP:  75; 6HR MAX TEMP:  89;

GILLETTE       PTSUNNY   82  42  24 SW16      30.14F
6HR MIN TEMP:  79; 6HR MAX TEMP:  91;

HULETT         FAIR      86  39  19 MISG      30.14S
NEWCASTLE      FAIR      79  37  22 SE3       30.15F

$$
WYZ014>020-022>026-101>103-020100-
CENTRAL WYOMING

CITY           SKY/WX    TMP DP  RH WIND       PRES   REMARKS
BIG PINEY      PTSUNNY   73  39  29 NE21G31   30.34R
6HR MIN TEMP:  72; 6HR MAX TEMP:  81;

PINEDALE       CLOUDY    70  41  35 NW3       30.36F
DUBOIS         DRIZZLE   57  43  58 W28       30.39F
LANDER         PTSUNNY   85  34  16 N8        30.19F
6HR MIN TEMP:  80; 6HR MAX TEMP:  89;

RIVERTON       PTSUNNY   83  33  16 NE7       30.21S
6HR MIN TEMP:  78; 6HR MAX TEMP:  87;

CASPER         MOSUNNY   83  34  17 N14       30.19F
6HR MIN TEMP:  82; 6HR MAX TEMP:  89;

DOUGLAS        PTSUNNY   83  36  18 NE17      30.18S
6HR MIN TEMP:  83; 6HR MAX TEMP:  90;


$$
WYZ021-027>030-104>119-020100-
SOUTHERN WYOMING

CITY           SKY/WX    TMP DP  RH WIND       PRES   REMARKS
EVANSTON       MOSUNNY   80  26  13 CALM      30.29F
6HR MIN TEMP:  73; 6HR MAX TEMP:  83;

KEMMERER       CLEAR    N/A N/A N/A E3        30.33S
FORT BRIDGER   FAIR      81  29  15 N3        30.32F
ROCK SPRINGS   MOSUNNY   83  29  14 NE9G18    30.26F
6HR MIN TEMP:  77; 6HR MAX TEMP:  84;

DIXON          FAIR      83  26  12 N9G17     30.23F
RAWLINS        MOSUNNY   80  30  16 E18G26    30.28F
6HR MIN TEMP:  76; 6HR MAX TEMP:  83;

SARATOGA       FAIR      77  32  19 N16       30.29S
LARAMIE        SUNNY     71  38  29 SE16      30.35S
6HR MIN TEMP:  70; 6HR MAX TEMP:  74;

CHEYENNE       MOSUNNY   76  45  33 SW12G21   30.29S
6HR MIN TEMP:  74; 6HR MAX TEMP:  79;

TORRINGTON     SUNNY     86  40  19 S9        30.13F
6HR MIN TEMP:  84; 6HR MAX TEMP:  90;

PINE BLUFFS    FAIR      77  45  31 S8        30.24F

$$


USA.gov is the U.S. government's official web portal to all federal, state and local government web resources and services.